This demonstration page uses our WeatherBlox Daily Observations layout. Learn more.

Hourly Observations for June 1, 2020

Temp ( °F °C ) Dew Point ( °F °C ) Humidity (%) Winds ( mph kmh ) Pressure ( in mb ) Visibility ( mi km ) Precip ( " mm )
12:54 am 00:54 Clear 73 22.8 58 14.4 59 59 S 16 26 30 1016 10 16.0934 0 0
1:54 am 01:54 Partly Cloudy 73 22.8 58 14.4 59 59 S 16 26 29.98 1015 10 16.0934 0 0
2:54 am 02:54 Mostly Cloudy with Light Rain 69 20.6 59 15 70 70 S 15 24 29.97 1015 10 16.0934 0.001 0.001
3:54 am 03:54 Mostly Clear 69 20.6 59 15 70 70 S 15 24 29.97 1015 10 16.0934 0.001 0.001
4:54 am 04:54 Clear 69 20.6 59 15 70 70 S 13 20 29.97 1015 10 16.0934 0 0
5:54 am 05:54 Clear 69 20.6 58 14.4 68 68 S 12 19 29.98 1015 10 16.0934 0 0
6:54 am 06:54 Sunny 70 21.1 58 14.4 66 66 S 18 30 29.97 1015 10 16.0934 0 0
7:54 am 07:54 Sunny 71 21.7 58 14.4 63 63 S 20 31 29.96 1015 10 16.0934 0 0
8:54 am 08:54 Sunny 73 22.8 59 15 62 62 S 18 30 29.96 1015 10 16.0934 0 0
9:54 am 09:54 Sunny 77 25 59 15 54 54 SSW 21 33 29.95 1014 10 16.0934 0 0
10:54 am 10:54 Sunny 80 26.7 59 15 49 49 SSW 24 39 29.93 1014 10 16.0934 0 0
11:54 am 11:54 Sunny 84 28.9 60 15.6 44 44 SSW 18 30 29.92 1013 10 16.0934 0 0
12:54 pm 12:54 Sunny 87 30.6 59 15 39 39 SW 21 33 29.91 1013 10 16.0934 0 0
1:54 pm 13:54 Sunny 89 31.7 59 15 36 36 SSW 23 37 29.88 1012 10 16.0934 0 0
2:54 pm 14:54 Sunny 91 32.8 60 15.6 35 35 SSW 25 41 29.85 1011 10 16.0934 0 0
3:54 pm 15:54 Sunny 92 33.3 60 15.6 34 34 SSW 28 44 29.83 1010 10 16.0934 0 0
4:54 pm 16:54 Sunny 92 33.3 60 15.6 34 34 SSW 24 39 29.83 1010 10 16.0934 0 0
5:54 pm 17:54 Sunny 91 32.8 60 15.6 35 35 SSW 22 35 29.83 1010 10 16.0934 0 0
6:54 pm 18:54 Sunny 89 31.7 60 15.6 38 38 SSW 18 30 29.83 1010 10 16.0934 0 0
7:54 pm 19:54 Sunny 86 30 61 16.1 43 43 S 16 26 29.83 1010 10 16.0934 0 0
8:54 pm 20:54 Clear 84 28.9 60 15.6 44 44 S 15 24 29.85 1011 10 16.0934 0 0
9:54 pm 21:54 Clear 81 27.2 62 16.7 53 53 S 14 22 29.87 1012 10 16.0934 0 0
10:54 pm 22:54 Clear 79 26.1 62 16.7 56 56 S 14 22 29.9 1012 10 16.0934 0 0
11:54 pm 23:54 Clear 76 24.4 62 16.7 62 62 S 12 19 29.9 1013 10 16.0934 0 0

Powered by AerisWeather